Location: Newark
(34.0131°N, 4.3314°W)
Time: 15:22:57
(UTC+00:00)

Vanguard 1 Rocket - Visible Passes

Search period start: 17 October 2019 00:00
Search period end: 27 October 2019 00:00
Orbit: 650 x 4226 km, 34.3° (Epoch: 13 October)

Date Brightness Start Highest point End Pass type
(mag) Time Alt. Az. Time Alt. Az. Time Alt. Az.
17 Oct 11.2 19:21:57 10° W 19:40:44 28° SW 19:54:28 10° S visible
18 Oct 11.2 18:04:33 10° WNW 18:27:51 43° SW 18:45:14 10° SSE visible
19 Oct 11.4 19:26:02 10° W 19:42:19 22° SW 19:55:04 10° S visible
20 Oct 11.4 18:07:40 10° WNW 18:29:30 36° SW 18:46:42 10° SSE visible
21 Oct 11.7 19:31:21 10° W 19:43:54 17° SW 19:54:33 10° SSW visible
22 Oct 11.6 18:11:11 10° W 18:31:08 30° SW 18:47:42 10° S visible
23 Oct 11.9 19:40:03 10° WSW 19:45:36 11° WSW 19:50:49 10° SW visible
24 Oct 11.8 18:15:22 10° W 18:32:46 23° SW 18:48:02 10° S visible
26 Oct 10.6 06:04:12 10° SSE 06:07:50 14° SE 06:12:25 10° E visible
26 Oct 12.0 18:20:44 10° W 18:34:31 17° SW 18:47:14 10° SSW visible
